�������l�o���
Date,Time,MP-1(��Sv/h),MP-2(��Sv/h),MP-3(��Sv/h),MP-4(��Sv/h),MP-5(��Sv/h),MP-6(��Sv/h),MP-7(��Sv/h),MP-8(��Sv/h),����,����(m/s),���J
2020/11/17,00:00,0.679,0.981,0.620,1.215,0.872,0.388,0.680,0.640,�k��,3.9,��
2020/11/17,00:10,0.680,0.980,0.619,1.214,0.868,0.388,0.680,0.638,�k��,3.2,��
2020/11/17,00:20,0.681,0.980,0.621,1.213,0.868,0.388,0.680,0.639,�k��,3.9,��
2020/11/17,00:30,0.679,0.979,0.621,1.215,0.869,0.386,0.681,0.640,�k��,4.4,��
2020/11/17,00:40,0.679,0.979,0.620,1.212,0.869,0.387,0.681,0.640,�k��,4.6,��
2020/11/17,00:50,0.680,0.978,0.620,1.214,0.869,0.387,0.682,0.640,���k��,4.1,��
2020/11/17,01:00,0.679,0.980,0.620,1.215,0.869,0.386,0.681,0.639,�k��,4.5,��
2020/11/17,01:10,0.680,0.980,0.619,1.216,0.868,0.387,0.681,0.638,�k��,4.2,��
2020/11/17,01:20,0.679,0.980,0.620,1.215,0.870,0.387,0.681,0.638,�k��,3.7,��
2020/11/17,01:30,0.679,0.979,0.619,1.214,0.870,0.388,0.680,0.637,�k��,6.1,��
2020/11/17,01:40,0.680,0.979,0.620,1.214,0.869,0.387,0.682,0.638,�k��,7.3,��
2020/11/17,01:50,0.681,0.980,0.620,1.211,0.872,0.389,0.681,0.637,�k��,6.4,��
2020/11/17,02:00,0.679,0.979,0.620,1.214,0.868,0.387,0.681,0.639,�k��,6.7,��
2020/11/17,02:10,0.678,0.979,0.619,1.215,0.870,0.388,0.680,0.640,�k��,7.7,��
2020/11/17,02:20,0.677,0.982,0.618,1.214,0.869,0.387,0.682,0.638,���k��,7.8,��
2020/11/17,02:30,0.678,0.979,0.620,1.214,0.870,0.388,0.680,0.639,���k��,9.5,��
2020/11/17,02:40,0.681,0.980,0.621,1.215,0.869,0.387,0.681,0.638,���k��,9.5,��
2020/11/17,02:50,0.678,0.979,0.618,1.215,0.869,0.387,0.680,0.638,���k��,9.5,��
2020/11/17,03:00,0.680,0.980,0.619,1.215,0.868,0.386,0.679,0.638,���k��,9.0,��
2020/11/17,03:10,0.679,0.980,0.618,1.214,0.870,0.386,0.680,0.638,���k��,10.5,��
2020/11/17,03:20,0.680,0.979,0.619,1.216,0.867,0.386,0.679,0.639,���k��,7.9,��
2020/11/17,03:30,0.680,0.980,0.620,1.215,0.869,0.387,0.679,0.637,���k��,8.1,��
2020/11/17,03:40,0.680,0.982,0.619,1.218,0.869,0.388,0.680,0.637,���k��,7.9,��
2020/11/17,03:50,0.679,0.979,0.618,1.215,0.871,0.387,0.680,0.639,�k��,6.2,��
2020/11/17,04:00,0.677,0.979,0.619,1.216,0.872,0.388,0.680,0.637,�k��,4.5,��
2020/11/17,04:10,0.678,0.979,0.619,1.215,0.869,0.387,0.678,0.639,�k�k��,3.3,��
2020/11/17,04:20,0.678,0.979,0.618,1.215,0.871,0.387,0.680,0.637,�k�k��,2.2,��
2020/11/17,04:30,0.678,0.977,0.616,1.213,0.869,0.386,0.681,0.638,�k��,2.6,��
2020/11/17,04:40,0.678,0.978,0.619,1.218,0.868,0.387,0.681,0.639,���k��,2.2,��
2020/11/17,04:50,0.678,0.979,0.620,1.215,0.867,0.387,0.681,0.639,�k�k��,1.1,��
2020/11/17,05:00,0.679,0.979,0.618,1.216,0.869,0.388,0.681,0.638,�k��,1.7,��
2020/11/17,05:10,0.679,0.977,0.618,1.216,0.867,0.386,0.679,0.640,�k,2.0,��
2020/11/17,05:20,0.679,0.978,0.617,1.213,0.868,0.385,0.680,0.638,�k,2.3,��
2020/11/17,05:30,0.679,0.979,0.618,1.214,0.868,0.386,0.681,0.639,�k��,3.8,��
2020/11/17,05:40,0.677,0.979,0.620,1.214,0.868,0.386,0.680,0.639,�k��,3.8,��
2020/11/17,05:50,0.678,0.980,0.618,1.215,0.869,0.386,0.680,0.638,�k��,3.9,��
2020/11/17,06:00,0.677,0.977,0.617,1.215,0.870,0.386,0.681,0.638,�k�k��,3.9,��
2020/11/17,06:10,0.676,0.978,0.619,1.212,0.866,0.386,0.680,0.639,�k�k��,3.8,��
2020/11/17,06:20,0.678,0.978,0.617,1.213,0.868,0.386,0.681,0.637,�k�k��,4.0,��
2020/11/17,06:30,0.677,0.978,0.619,1.215,0.867,0.385,0.679,0.639,�k�k��,4.5,��
2020/11/17,06:40,0.676,0.977,0.617,1.215,0.868,0.384,0.681,0.638,�k�k��,4.8,��
2020/11/17,06:50,0.675,0.976,0.618,1.214,0.865,0.386,0.682,0.637,�k,4.5,��
2020/11/17,07:00,0.677,0.978,0.617,1.214,0.867,0.386,0.680,0.638,�k�k��,4.4,��
2020/11/17,07:10,0.678,0.979,0.616,1.214,0.865,0.386,0.678,0.639,�k,3.8,��
2020/11/17,07:20,0.678,0.978,0.618,1.214,0.869,0.385,0.680,0.638,�k,3.4,��
2020/11/17,07:30,0.678,0.978,0.617,1.214,0.868,0.386,0.680,0.638,�k,3.6,��
2020/11/17,07:40,0.676,0.978,0.617,1.214,0.867,0.386,0.681,0.638,�k�k��,4.1,��
2020/11/17,07:50,0.677,0.978,0.616,1.211,0.868,0.386,0.682,0.638,�k�k��,4.3,��
2020/11/17,08:00,0.676,0.978,0.616,1.212,0.866,0.385,0.680,0.638,�k,3.8,��
2020/11/17,08:10,0.677,0.977,0.619,1.216,0.867,0.386,0.681,0.637,�k,4.3,��
2020/11/17,08:20,0.679,0.980,0.617,1.215,0.867,0.385,0.682,0.638,�k,3.2,��
2020/11/17,08:30,0.676,0.976,0.617,1.213,0.867,0.386,0.680,0.638,�k,2.3,��
2020/11/17,08:40,0.678,0.977,0.618,1.214,0.869,0.385,0.682,0.640,�k�k��,1.9,��
2020/11/17,08:50,0.677,0.975,0.616,1.215,0.868,0.385,0.681,0.639,�k,1.2,��
2020/11/17,09:00,0.676,0.974,0.615,1.215,0.866,0.386,0.680,0.637,�k��,1.5,��
2020/11/17,09:10,0.677,0.975,0.617,1.213,0.869,0.386,0.679,0.638,�k��,2.3,��
2020/11/17,09:20,0.676,0.973,0.619,1.215,0.871,0.385,0.680,0.637,�k��,2.3,��
2020/11/17,09:30,0.677,0.973,0.618,1.212,0.870,0.386,0.678,0.637,��,1.5,��
2020/11/17,09:40,0.678,0.973,0.616,1.215,0.872,0.386,0.676,0.638,��,1.7,��
2020/11/17,09:50,0.679,0.973,0.617,1.214,0.867,0.386,0.679,0.640,��,2.0,��
2020/11/17,10:00,0.677,0.971,0.616,1.217,0.870,0.384,0.679,0.639,��,2.0,��
2020/11/17,10:10,0.678,0.973,0.618,1.213,0.869,0.386,0.677,0.637,���쓌,2.5,��
2020/11/17,10:20,0.679,0.974,0.617,1.214,0.868,0.385,0.679,0.638,���k��,2.5,��
2020/11/17,10:30,0.675,0.976,0.617,1.212,0.869,0.386,0.676,0.639,��,2.8,��
2020/11/17,10:40,0.676,0.975,0.617,1.217,0.870,0.385,0.679,0.639,��,3.2,��
2020/11/17,10:50,0.677,0.977,0.618,1.216,0.869,0.384,0.678,0.638,���쓌,2.9,��
2020/11/17,11:00,0.676,0.976,0.617,1.213,0.867,0.385,-,0.637,���쓌,3.3,��
2020/11/17,11:10,0.677,0.975,0.618,1.214,0.868,0.386,-,0.639,���쓌,3.1,��
2020/11/17,11:20,0.676,0.977,0.617,1.214,0.871,0.382,-,0.639,��,2.8,��
2020/11/17,11:30,0.676,0.977,0.617,1.213,0.868,0.385,-,0.637,���쓌,3.9,��
2020/11/17,11:40,0.676,0.978,0.618,1.215,0.869,0.384,-,0.640,��,3.5,��
2020/11/17,11:50,0.676,0.979,0.616,1.216,0.868,0.385,-,0.638,��,3.7,��
2020/11/17,12:00,0.679,0.981,0.617,1.216,0.866,0.385,-,0.640,���쓌,3.0,��
2020/11/17,12:10,0.676,0.980,0.617,1.215,0.868,0.385,-,0.640,���k��,2.3,��
2020/11/17,12:20,0.676,0.978,0.618,1.215,0.870,0.386,-,0.637,��,2.9,��
2020/11/17,12:30,0.676,0.979,0.619,1.216,0.869,0.388,-,0.636,���k��,2.2,��
2020/11/17,12:40,0.676,0.978,0.618,1.214,0.869,0.388,-,0.635,���k��,2.6,��
2020/11/17,12:50,0.676,0.979,0.616,1.216,0.866,0.387,-,0.635,��,2.6,��
2020/11/17,13:00,0.677,0.976,0.616,1.215,0.868,0.386,-,0.637,���k��,2.6,��
2020/11/17,13:10,0.677,0.977,0.615,1.214,0.869,0.386,-,0.636,��,2.8,��
2020/11/17,13:20,0.676,0.978,0.614,1.214,0.868,0.386,-,0.636,���k��,2.6,��
2020/11/17,13:30,0.676,0.978,0.616,1.214,0.867,0.387,-,0.636,��,3.6,��
2020/11/17,13:40,0.675,0.976,0.615,1.214,0.869,0.385,-,0.633,��,3.4,��
2020/11/17,13:50,0.676,0.976,0.617,1.216,0.867,0.385,-,0.635,���k��,2.5,��
2020/11/17,14:00,0.676,0.975,0.616,1.213,0.869,0.386,-,0.636,��,2.8,��
2020/11/17,14:10,0.675,0.976,0.617,1.216,0.868,0.387,0.679,0.637,��,2.3,��
2020/11/17,14:20,0.677,0.973,0.617,1.216,0.868,0.387,0.679,0.636,�쓌,2.5,��
2020/11/17,14:30,0.677,0.978,0.616,1.215,0.869,0.386,0.679,0.637,�쓌,2.3,��
2020/11/17,14:40,0.676,0.977,0.615,1.214,0.868,0.386,0.678,0.636,���쓌,2.6,��
2020/11/17,14:50,0.677,0.980,0.619,1.215,0.868,0.386,0.680,0.634,�쓌,2.6,��
2020/11/17,15:00,0.677,0.978,0.617,1.216,0.868,0.386,0.679,0.634,��쓌,3.6,��
2020/11/17,15:10,0.677,0.980,0.618,1.214,0.868,0.387,0.679,0.636,�쓌,3.1,��
2020/11/17,15:20,0.677,0.983,0.617,1.214,0.868,0.387,0.679,0.638,�쓌,3.9,��
2020/11/17,15:30,0.677,0.983,0.617,1.215,0.868,0.387,0.681,0.638,��쓌,2.8,��
2020/11/17,15:40,0.676,0.983,0.617,1.215,0.868,0.387,0.680,0.639,��쓌,4.0,��
2020/11/17,15:50,0.675,0.985,0.618,1.215,0.867,0.385,0.678,0.638,��쓌,4.4,��
2020/11/17,16:00,0.677,0.983,0.618,1.215,0.867,0.385,0.679,0.639,��쓌,4.0,��
2020/11/17,16:10,0.678,0.983,0.617,1.213,0.868,0.385,0.681,0.639,��쓌,4.4,��
2020/11/17,16:20,0.677,0.983,0.620,1.214,0.868,0.385,0.679,0.636,��쓌,4.4,��
2020/11/17,16:30,0.678,0.986,0.618,1.214,0.868,0.386,0.681,0.638,��쓌,4.4,��
2020/11/17,16:40,0.678,0.984,0.619,1.215,0.867,0.385,0.679,0.638,��쓌,4.5,��
2020/11/17,16:50,0.679,0.984,0.619,1.216,0.870,0.386,0.678,0.635,��,4.4,��
2020/11/17,17:00,0.679,0.985,0.618,1.214,0.872,0.386,0.680,0.637,��,5.1,��
2020/11/17,17:10,0.678,0.983,0.618,1.214,0.870,0.385,0.679,0.637,��,4.7,��
2020/11/17,17:20,0.678,0.984,0.617,1.219,0.871,0.386,0.680,0.637,��,4.3,��
2020/11/17,17:30,0.677,0.984,0.618,1.217,0.868,0.386,0.679,0.638,��,4.6,��
2020/11/17,17:40,0.678,0.982,0.617,1.214,0.870,0.386,0.679,0.638,��,5.0,��
2020/11/17,17:50,0.678,0.984,0.618,1.215,0.869,0.387,0.678,0.636,��,5.8,��
2020/11/17,18:00,0.677,0.983,0.618,1.215,0.870,0.384,0.680,0.638,��,5.5,��
2020/11/17,18:10,0.676,0.981,0.616,1.215,0.870,0.384,0.680,0.635,��,5.9,��
2020/11/17,18:20,0.679,0.981,0.616,1.213,0.868,0.386,0.679,0.638,��,6.7,��
2020/11/17,18:30,0.678,0.984,0.618,1.216,0.868,0.384,0.680,0.638,��,7.5,��
2020/11/17,18:40,0.677,0.983,0.617,1.216,0.869,0.386,0.679,0.638,��,7.9,��
2020/11/17,18:50,0.678,0.982,0.619,1.215,0.869,0.385,0.681,0.638,��,8.3,��
2020/11/17,19:00,0.678,0.983,0.616,1.215,0.869,0.385,0.680,0.637,��,8.7,��
2020/11/17,19:10,0.678,0.983,0.618,1.215,0.870,0.385,0.679,0.638,��,8.5,��
2020/11/17,19:20,0.679,0.984,0.621,1.215,0.869,0.386,0.679,0.637,��,8.0,��
2020/11/17,19:30,0.676,0.980,0.616,1.212,0.869,0.386,0.680,0.637,��,9.2,��
2020/11/17,19:40,0.678,0.979,0.617,1.214,0.868,0.385,0.680,0.637,��,8.4,��
2020/11/17,19:50,0.678,0.982,0.619,1.214,0.870,0.386,0.680,0.636,��,8.3,��
2020/11/17,20:00,0.677,0.981,0.618,1.214,0.870,0.385,0.681,0.638,��,8.5,��
2020/11/17,20:10,0.678,0.981,0.618,1.212,0.871,0.386,0.679,0.637,��,8.5,��
2020/11/17,20:20,0.678,0.981,0.619,1.214,0.871,0.385,0.680,0.637,��,8.3,��
2020/11/17,20:30,0.678,0.983,0.619,1.215,0.870,0.385,0.680,0.639,��,7.8,��
2020/11/17,20:40,0.678,0.983,0.618,1.215,0.870,0.384,0.680,0.636,��,7.5,��
2020/11/17,20:50,0.678,0.982,0.618,1.213,0.872,0.385,0.680,0.640,��,7.7,��
2020/11/17,21:00,0.677,0.984,0.618,1.215,0.868,0.387,0.680,0.639,��,6.9,��
2020/11/17,21:10,0.679,0.980,0.618,1.214,0.868,0.386,0.681,0.637,��,7.6,��
2020/11/17,21:20,0.679,0.979,0.618,1.213,0.868,0.387,0.678,0.639,��,5.9,��
2020/11/17,21:30,0.679,0.981,0.619,1.214,0.869,0.386,0.679,0.639,��,7.6,��
2020/11/17,21:40,0.677,0.980,0.618,1.216,0.869,0.387,0.679,0.638,��,8.4,��
2020/11/17,21:50,0.678,0.980,0.619,1.213,0.871,0.385,0.680,0.638,��,8.2,��
2020/11/17,22:00,0.676,0.980,0.617,1.214,0.870,0.386,0.678,0.636,��,8.2,��
2020/11/17,22:10,0.678,0.982,0.618,1.215,0.870,0.385,0.679,0.637,��,8.0,��
2020/11/17,22:20,0.678,0.982,0.618,1.213,0.869,0.386,0.680,0.635,��,8.0,��
2020/11/17,22:30,0.679,0.981,0.618,1.216,0.870,0.386,0.681,0.638,��,7.9,��
2020/11/17,22:40,0.678,0.982,0.617,1.211,0.868,0.385,0.679,0.639,��,10.0,��
2020/11/17,22:50,0.677,0.980,0.618,1.213,0.870,0.386,0.680,0.638,��,10.7,��
2020/11/17,23:00,0.677,0.982,0.617,1.215,0.869,0.386,0.680,0.636,��,9.7,��
2020/11/17,23:10,0.677,0.980,0.617,1.214,0.868,0.387,0.680,0.638,��,9.3,��
2020/11/17,23:20,0.679,0.980,0.617,1.214,0.867,0.385,0.681,0.638,��,7.1,��
2020/11/17,23:30,0.679,0.982,0.617,1.214,0.870,0.384,0.681,0.636,��,9.0,��
2020/11/17,23:40,0.677,0.979,0.617,1.214,0.869,0.385,0.679,0.636,��,9.3,��
2020/11/17,23:50,0.677,0.981,0.617,1.214,0.868,0.386,0.681,0.637,��쓌,9.7,��
